Regional Weather Roundup
Issued by NWS Binghamton, NY

Home | Current Version | Previous Version | Text Only | Print | Product List | Glossary On
Versions: 1 2 3 4 5 6 7 8 9 10 11 12 13 14 15 16 17 18 19 20 21 22 23 24 25 26 27 28 29 30 31 32 33 34 35 36 37 38 39 40 41 42 43 44 45 46 47 48 49 50
000
ASUS41 KBGM 290810
RWRBGM

REGIONAL WEATHER ROUNDUP
NATIONAL WEATHER SERVICE BINGHAMTON NY
400 AM EDT THU OCT 29 2020

Note: "fair" indicates few or no clouds below 12,000 feet with no
significant weather and/or obstructions to visibility.

* = Station(s) that does not report precipitation, such as rain,
snow, etc, also no thunder or fog.

NYZ009-015>018-022>025-036-037-044>046-055>057-062-290900
...Central New York...

CITY           SKY/WX    TMP DP  RH WIND       PRES   REMARKS
Binghamton     CLOUDY    43  40  89 SW5       29.91F
Cortland       CLOUDY    37  25  60 CALM      29.93F
Dansville      CLOUDY    44  40  85 E6        29.91F
Elmira         CLOUDY    40  39  97 CALM      29.92F
Endicott       FOG       39  39 100 CALM      29.92F VSB 1/4
Ithaca         CLOUDY    40  40 100 CALM      29.93F
Monticello     CLOUDY    43  42  97 NW3       29.92F
Norwich        FOG       37  37 100 CALM      29.94F VSB 3/4
Oneonta        FOG       37  37 100 CALM      29.92S VSB 1/2
Penn Yan       CLOUDY    46  42  86 VRB5      29.91F
Rome           CLOUDY    36  34  92 CALM      29.94S
Seneca Falls   PTSUNNY   45  43  93 S5        29.92F
Sidney         FOG       39  39 100 CALM      29.94F VSB 1/2
Skaneateles    CLOUDY    41  41 100 CALM      29.91F
Syracuse       CLOUDY    41  38  89 CALM      29.92F
$$

PAZ038>040-043-044-047-048-072-290900
...Northeast Pennsylvania...

CITY           SKY/WX    TMP DP  RH WIND       PRES   REMARKS
Hazleton       CLOUDY    46  45  93 CALM      29.96R
Scranton       CLOUDY    49  46  90 CALM      29.92F
Towanda        PTSUNNY   43  43 100 CALM      29.93F
$$
&&
KEY
WCI = Wind Chill Index
VSB = Visibility
HX  = Heat Index
$$




USA.gov is the U.S. government's official web portal to all federal, state and local government web resources and services.